sat.trackr.live / text

‹ back to catalog

STARLINK-3129

NORAD 49453 · 2021-104AX

PAYLOAD ACTIVE UNKNOWN

§ Identity

Operator
Country
US
Launch date
2021-11-13
Launch site
AFETR
Launch vehicle
Mass (kg)
RCS (m²)

Purposes: comms

External: N2YO · Heavens-Above · Gunter

§ Orbital elements

Epoch: 2026-05-24T23:44:30.706656Z

Period
95.44 min
Inclination
53.2194°
Eccentricity
0.0001432
Mean motion
15.08850019 rev/d
Perigee alt
538.7 km
Apogee alt
540.7 km
Semi-major
6,917.8 km
B*
1.1123e-4
RAAN
236.6841°
Arg perigee
91.8076°
Mean anomaly
268.3081°
Rev number
25,029

§ Raw data

STARLINK-31291 49453U 21104AX  26144.98924429  .00001483  00000+0  11123-3 0  99932 49453  53.2194 236.6841 0001432  91.8076 268.3081 15.08850019250295

JSON: /api/v1/satellites/49453 · /tle

For live sub-satellite position, see the globe view (requires WebGL).

§ Visibility from observer

Set your observer location to see the next 7 days of passes ≥ 10°. The values pass through the URL so the page stays shareable.

No JS? Fill the form by hand. The geolocation button needs JavaScript.